Location: *
(49.9853°N, 3.5569°E)
Time: 09:11:08
(UTC+00:00)

Cosmos 1959 Rocket - Pass Details

Date: 22 September 2019
Orbit: 947 x 997 km, 82.9° (Epoch: 17 October)

Event Time Altitude Azimuth Distance (km) Brightness Sun altitude
Rises 19:03:20 0° 352° (N) 3,634 7.8 -13.3°
Reaches altitude 10° 19:05:53 10° 356° (N) 2,688 7.1 -13.7°
Maximum altitude 19:11:58 61° 77° (ENE) 1,078 4.5 -14.6°
Drops below altitude 10° 19:18:03 10° 157° (SSE) 2,696 6.4 -15.5°
Enters shadow 19:18:28 - 158° (SSE) 2,849 6.6 -15.6°
